Regional Weather Roundup
Issued by NWS Upton, NY

Current Version | Previous Version | Text Only | Print | Product List | Glossary On
Versions: 1 2 3 4 5 6 7 8 9 10 11 12 13 14 15 16 17 18 19 20 21 22 23 24 25 26 27 28 29 30 31 32 33 34 35 36 37 38 39 40 41 42 43 44 45 46 47 48 49 50
000
ASUS41 KOKX 272105
RWROKX

REGIONAL WEATHER ROUNDUP
NATIONAL WEATHER SERVICE NEW YORK NY
400 PM EST THU NOV 27 2014

NOTE: "FAIR" INDICATES FEW OR NO CLOUDS BELOW 12,000 FEET WITH NO
SIGNIFICANT WEATHER AND/OR OBSTRUCTIONS TO VISIBILITY.

NYZ071-072-176-178-NJZ106-104-272200-
NEW YORK CITY METRO AREA


CITY           SKY/WX    TMP DP  RH WIND       PRES   REMARKS
CENTRAL PARK   CLOUDY    37  30  75 MISG      30.01S
LAGUARDIA APRT CLOUDY    37  32  82 N8        29.99R WCI  31
KENNEDY INTL   CLOUDY    38  32  79 NW9       30.00S WCI  31
NEWARK/LIBERTY CLOUDY    37  30  75 W12       30.00R WCI  29
BRNX BOT. GARD   N/A     36  32  87 NW2       29.99F
TETERBORO      CLOUDY    37  30  75 W6        29.99R WCI  32
$$

NYZ177-179-078>081-272200-
LONG ISLAND NEW YORK

CITY           SKY/WX    TMP DP  RH WIND       PRES   REMARKS
FARMINGDALE    CLOUDY    39  30  70 N7        29.99R WCI  34
ISLIP          CLOUDY    38  30  73 N7        29.97R WCI  33
SHIRLEY        CLOUDY    37  32  82 NW8       29.99R WCI  31
WESTHAMPTON    CLOUDY    37  32  82 NW6       29.99R WCI  32
MONTAUK POINT    N/A     40  33  76 NW7       29.96S
$$

NYZ052-065-067-272200-
HUDSON VALLEY

CITY           SKY/WX    TMP DP  RH WIND       PRES   REMARKS
WHITE PLAINS   MOCLDY    34  29  82 NW7       29.97R WCI  28
NEWBURGH       CLOUDY    32  30  93 CALM      29.99R FOG
MONTGOMERY     CLOUDY    32  30  92 N3        29.98R
POUGHKEEPSIE   FLURRIES  34  29  82 NW5       30.00R WCI  30
ALBANY         LGT SNOW  30  26  85 N3        30.02R FOG
$$

NJZ001-105-106-008-010-013-015-019>022-104-272200-
NEW JERSEY

CITY           SKY/WX    TMP DP  RH WIND       PRES   REMARKS
NEWARK/LIBERTY CLOUDY    37  30  75 W12       30.00R WCI  29
TETERBORO      CLOUDY    37  30  75 W6        29.99R WCI  32
CALDWELL       CLOUDY    35  27  72 NW7       30.01R WCI  29
MORRISTOWN     NOT AVBL
SOMERVILLE     MOCLDY    37  28  70 NW7       30.00R WCI  32
SUSSEX         CLOUDY    34  27  75 CALM      30.00R
ANDOVER          N/A     34  28  79 CALM      30.00R
TRENTON        CLOUDY    36  27  69 NW5       30.01S WCI  32
MILLVILLE      CLEAR     41  28  60 NW8       30.03R
ATLANTIC CITY  CLEAR     41  30  65 NW14      30.02R
WRIGHTSTOWN    MOCLDY    37  28  71 NW10      30.00R WCI  29
TOMS RIVER     MOCLDY    37  28  70 NW7       30.01R WCI  32
BELMAR         CLOUDY    37  27  65 NW8G16    30.00R WCI  31
$$

PAZ047>061-062-071-272200-
EASTERN PENNSYLVANIA

CITY           SKY/WX    TMP DP  RH WIND       PRES   REMARKS
PHILADELPHIA   MOCLDY    40  28  62 NW12      30.04R WCI  33
ALLENTOWN      CLOUDY    36  27  69 W7        30.02R WCI  30
SCRANTON       CLOUDY    32  23  69 NW14      30.01R WCI  22
$$

CTZ002-004>006-009-010-012-RIZ004-006-007-MAZ004-011-015-272200-
SOUTHERN NEW ENGLAND
 IN CT

CITY           SKY/WX    TMP DP  RH WIND       PRES   REMARKS
BRADLEY INTL   CLOUDY    35  27  72 N6        29.97R WCI  30
HARTFORD       LGT SNOW  35  28  75 VRB5      29.98R WCI  31
DANBURY        CLOUDY    34  26  72 N7        29.98S WCI  28
WTRBRY/OXFORD  CLOUDY    30  25  80 N5        29.97R WCI  25
BRIDGEPORT     CLOUDY    37  30  75 N8        29.98S WCI  31
MERIDEN        FLURRIES  34  30  85 N5        29.98S WCI  30
NEW HAVEN      CLOUDY    38  31  76 N7        29.98R WCI  33
CHESTER        LGT SNOW  34  32  93 NW5       29.97R WCI  30
GROTON         CLOUDY    36  31  82 NW7       29.96R WCI  30
WILLIMANTIC    CLOUDY    36  28  73 N6        29.97R WCI  31

 IN RI

CITY           SKY/WX    TMP DP  RH WIND       PRES   REMARKS
PROVIDENCE     CLOUDY    37  31  78 N9        29.96S WCI  30
BLOCK ISLAND   CLOUDY    39  32  75 CALM      29.94S
WESTERLY       CLOUDY    38  33  82 N6        29.96R WCI  33

 IN MA

CITY           SKY/WX    TMP DP  RH WIND       PRES   REMARKS
BOSTON         CLOUDY    37  30  75 NW8       29.97R WCI  31
WORCESTER      CLOUDY    30  26  85 N8        29.93R WCI  22
WESTFIELD      CLOUDY    34  27  75 NW8       29.97R WCI  27
PROVINCETOWN   CLOUDY    39  30  70 NW7       29.96R WCI  34
NANTUCKET      CLOUDY    40  32  73 NE5       29.95S
$$

ANZ330-335-338-340-345-350-353-355-272200-
COASTAL MARINE OBSERVATIONS


STATION/POSITION TIME  SKY/WX   TEMP    WIND        PRES    VSBY  WAVE
                                AIR SEA DIR/SP/G                  HT/PER
                 (UTC)          (F)     (DEG/KT/KT) (MB)    (MI)  (FT/S)
NY HARB ENTRANCE 2100            38 54  280/ 14/ 17 1015.7          4/10
4S FIRE IS       2100               52                N/A           4/ 9
20S FIRE ISLAND  2100            40 54  330/ 12/ 19 1014.8          4/10
23SW MTP         2100                                 N/A           6/10
HUDSON CANYON    2100            44 58  300/ 17/ 23 1014.2          6/10
EXECUTION ROCKS  2100            38 48  320/  8/ 12   N/A
WESTERN LI SOUND 2100            38     330/  8/ 12   N/A           0
CENTRAL LI SOUND 2000            36 50  320/ 10/ 14   N/A           1
EASTERN LI SOUND 2000            40 51  350/  8/ 12   N/A
ROBBINS REEF     2100            37     310/ 12/ 14 1014.5
$$


>>>>>>>>>>>>>>>>>>>>>>>>>>>> KEY <<<<<<<<<<<<<<<<<<<<<<<<<<<
>                                                          <
>     SKY/WX - SKY CONDITION/PRESENT WEATHER               <
>     TMP    - TEMPERATURE IN FAHRENHEIT                   <
>     DP     - DEWPOINT IN FAHRENHEIT                      <
>     RH     - RELATIVE HUMIDITY IN PERCENT                <
>     WIND   - DIRECTION AND SPEED IN MPH                  <
>     PRES   - MEAN SEA LEVEL PRESSURE IN INCHES OF HG     <
>     WCI    - WIND CHILL INDEX                            <
>     VSB    - VISIBILITY IN MILES                         <
>     HX     - HEAT INDEX                                  <
>     TC     - TEMPERATURE IN CELSIUS                      <
>     VRB    - VARIABLE WIND DIRECTION                     <
>                                                          <
>>>>>>>>>>>>>>>>>>>>>>>>>>>> KEY <<<<<<<<<<<<<<<<<<<<<<<<<<<





USA.gov is the U.S. government's official web portal to all federal, state and local government web resources and services.